Location: Bathurst
(33.4193°S, 149.5775°E)
Time: 09:04:10
(UTC+10:00)

Vanguard 1 Rocket - Pass Details

Date: 22 June 2021
Orbit: 650 x 4226 km, 34.3° (Epoch: 02 August)

Event Time Altitude Azimuth Distance (km) Brightness Sun altitude
Rises 08:46:08 0° 293° (WNW) 8,397 12.1 16.2°
Reaches altitude 10° 08:52:20 10° 293° (WNW) 7,166 11.8 17.2°
Maximum altitude 09:15:02 82° 16° (NNE) 2,722 10.3 20.4°
Drops below altitude 10° 09:26:42 10° 101° (E) 4,037 11.2 22.0°
Sets 09:29:10 0° 102° (ESE) 4,703 11.4 22.3°
